Location: Borojevi?i
(45.0486°N, 16.2297°E)
Time: 05:12:14
(UTC+00:00)

Cosmos 1975 Rocket - Pass Details

Date: 08 August 2020
Orbit: 603 x 634 km, 82.5° (Epoch: 23 September)

Event Time Altitude Azimuth Distance (km) Brightness Sun altitude
Rises 23:37:16 0° 345° (NNW) 2,943 7.5 -28.6°
Reaches altitude 10° 23:39:35 10° 340° (NNW) 2,029 6.4 -28.5°
Enters shadow 23:42:26 34° 316° (NW) 1,050 4.4 -28.4°
